Time,TemperatureF,DewpointF,PressureIn,WindDirection,WindDirectionDegrees,WindSpeedMPH,WindSpeedGustMPH,Humidity,HourlyPrecipIn,Conditions,Clouds,dailyrainin,SolarRadiationWatts/m^2,SoftwareType,DateUTC
2013-01-14 07:40:00,53.0,48.6,30.11,NW,311,11.0,20.0,85,0.00,,,0.01,1410,Wunderground v.1.15,2013-01-14 12:40:00,
2013-01-14 07:41:00,52.9,48.5,30.10,WNW,303,11.0,20.0,85,0.00,,,0.01,1412,Wunderground v.1.15,2013-01-14 12:41:00,
2013-01-14 07:44:00,53.0,48.3,30.11,NW,312,11.0,20.0,84,0.00,,,0.01,1413,Wunderground v.1.15,2013-01-14 12:44:00,
2013-01-14 07:45:00,52.9,48.2,30.11,WNW,299,11.0,20.0,84,0.00,,,0.01,1415,Wunderground v.1.15,2013-01-14 12:45:00,
2013-01-14 07:51:00,52.7,48.0,30.11,NW,309,11.0,12.0,84,0.00,,,0.01,1420,Wunderground v.1.15,2013-01-14 12:51:00,
2013-01-14 07:56:00,52.5,47.5,30.11,NW,321,11.0,16.0,83,0.00,,,0.01,1427,Wunderground v.1.15,2013-01-14 12:56:00,
2013-01-14 08:02:00,52.5,47.5,30.11,WNW,299,11.0,13.0,83,0.00,,,0.01,1433,Wunderground v.1.15,2013-01-14 13:02:00,
2013-01-14 08:07:00,52.4,47.4,30.12,WNW,288,11.0,14.0,83,0.00,,,0.01,1440,Wunderground v.1.15,2013-01-14 13:07:00,
2013-01-14 08:12:00,52.3,47.3,30.12,WNW,300,10.0,13.0,83,0.00,,,0.01,1445,Wunderground v.1.15,2013-01-14 13:12:00,
2013-01-14 08:18:00,52.2,46.9,30.13,WNW,298,10.0,13.0,82,0.00,,,0.01,1450,Wunderground v.1.15,2013-01-14 13:18:00,
2013-01-14 08:24:00,52.1,46.8,30.14,WNW,290,9.0,13.0,82,0.00,,,0.01,1457,Wunderground v.1.15,2013-01-14 13:24:00,
2013-01-14 08:29:00,52.1,46.4,30.14,WNW,299,7.0,13.0,81,0.00,,,0.01,1463,Wunderground v.1.15,2013-01-14 13:29:00,
2013-01-14 09:59:00,51.8,43.4,30.19,WNW,285,7.0,7.0,73,0.00,,,0.01,,Wunderground v.1.15,2013-01-14 14:59:00,
2013-01-14 10:22:00,51.8,43.8,30.20,NW,315,6.0,6.0,74,0.00,,,0.01,,Wunderground v.1.15,2013-01-14 15:22:00,
2013-01-14 10:28:00,51.7,44.0,30.20,NNW,338,5.0,9.0,75,0.00,,,0.01,,Wunderground v.1.15,2013-01-14 15:28:00,
2013-01-14 10:34:00,51.5,43.8,30.20,NNW,336,5.0,6.0,75,0.00,,,0.01,,Wunderground v.1.15,2013-01-14 15:34:00,
2013-01-14 10:39:00,51.1,43.4,30.20,NW,321,5.0,8.0,75,0.00,,,0.01,,Wunderground v.1.15,2013-01-14 15:39:00,
2013-01-14 10:45:00,50.7,43.1,30.20,NNW,348,6.0,11.0,75,0.00,,,0.01,,Wunderground v.1.15,2013-01-14 15:45:00,
2013-01-14 10:50:00,50.6,43.0,30.20,NNW,348,7.0,11.0,75,0.00,,,0.01,,Wunderground v.1.15,2013-01-14 15:50:00,
2013-01-14 10:56:00,50.3,42.7,30.20,NW,326,8.0,10.0,75,0.00,,,0.01,,Wunderground v.1.15,2013-01-14 15:56:00,
2013-01-14 11:01:00,50.2,42.6,30.20,WNW,286,9.0,10.0,75,0.00,,,0.01,,Wunderground v.1.15,2013-01-14 16:01:00,
2013-01-14 11:06:00,50.2,42.2,30.20,NW,318,9.0,10.0,74,0.00,,,0.01,,Wunderground v.1.15,2013-01-14 16:06:00,
2013-01-14 11:11:00,50.2,42.2,30.20,NW,308,9.0,10.0,74,0.00,,,0.01,,Wunderground v.1.15,2013-01-14 16:11:00,
2013-01-14 11:17:00,50.2,42.9,30.20,NNW,333,7.0,10.0,76,0.00,,,0.01,,Wunderground v.1.15,2013-01-14 16:17:00,
2013-01-14 11:22:00,50.0,42.4,30.19,NW,316,7.0,15.0,75,0.00,,,0.01,,Wunderground v.1.15,2013-01-14 16:22:00,
2013-01-14 11:28:00,49.5,41.9,30.18,NW,323,10.0,15.0,75,0.00,,,0.01,,Wunderground v.1.15,2013-01-14 16:28:00,
2013-01-14 11:33:00,49.4,41.8,30.19,NW,316,10.0,13.0,75,0.00,,,0.01,,Wunderground v.1.15,2013-01-14 16:33:00,
2013-01-14 11:38:00,49.4,41.8,30.18,NNW,327,9.0,13.0,75,0.00,,,0.01,,Wunderground v.1.15,2013-01-14 16:38:00,
2013-01-14 11:44:00,49.5,42.2,30.18,NNW,340,8.0,9.0,76,0.00,,,0.01,,Wunderground v.1.15,2013-01-14 16:44:00,
2013-01-14 11:49:00,49.4,41.8,30.18,NNW,327,8.0,14.0,75,0.00,,,0.01,,Wunderground v.1.15,2013-01-14 16:49:00,
2013-01-14 11:55:00,49.3,42.1,30.18,NNW,336,9.0,11.0,76,0.00,,,0.01,,Wunderground v.1.15,2013-01-14 16:55:00,
2013-01-14 12:00:00,49.3,42.1,30.18,NNW,335,7.0,8.0,76,0.00,,,0.01,,Wunderground v.1.15,2013-01-14 17:00:00,
2013-01-14 12:05:00,49.3,41.7,30.19,NW,304,7.0,10.0,75,0.00,,,0.01,,Wunderground v.1.15,2013-01-14 17:05:00,
2013-01-14 12:10:00,49.3,42.1,30.18,North,355,7.0,7.0,76,0.00,,,0.01,,Wunderground v.1.15,2013-01-14 17:10:00,
2013-01-14 12:15:00,49.2,42.0,30.18,NW,309,7.0,14.0,76,0.00,,,0.01,,Wunderground v.1.15,2013-01-14 17:15:00,
2013-01-14 12:21:00,49.2,42.0,30.19,NW,315,7.0,8.0,76,0.00,,,0.01,,Wunderground v.1.15,2013-01-14 17:21:00,
2013-01-14 12:26:00,49.3,42.1,30.19,NW,304,6.0,8.0,76,0.00,,,0.01,,Wunderground v.1.15,2013-01-14 17:26:00,
2013-01-14 12:31:00,49.2,41.6,30.19,NW,313,5.0,8.0,75,0.00,,,0.01,,Wunderground v.1.15,2013-01-14 17:31:00,
2013-01-14 12:37:00,49.1,41.5,30.19,NNW,338,8.0,11.0,75,0.00,,,0.01,,Wunderground v.1.15,2013-01-14 17:37:00,
2013-01-14 12:42:00,49.1,41.5,30.18,NW,326,9.0,11.0,75,0.00,,,0.01,,Wunderground v.1.15,2013-01-14 17:42:00,
2013-01-14 12:47:00,49.1,41.5,30.18,NW,313,8.0,11.0,75,0.00,,,0.01,,Wunderground v.1.15,2013-01-14 17:47:00,
2013-01-14 12:52:00,49.0,41.4,30.17,NW,323,7.0,8.0,75,0.00,,,0.01,,Wunderground v.1.15,2013-01-14 17:52:00,
2013-01-14 12:58:00,49.0,41.4,30.16,NNW,336,6.0,9.0,75,0.00,,,0.01,,Wunderground v.1.15,2013-01-14 17:58:00,
2013-01-14 13:03:00,49.2,41.6,30.17,North,355,5.0,9.0,75,0.00,,,0.01,,Wunderground v.1.15,2013-01-14 18:03:00,
2013-01-14 13:08:00,49.4,41.8,30.16,North,360,5.0,9.0,75,0.00,,,0.01,,Wunderground v.1.15,2013-01-14 18:08:00,
2013-01-14 13:14:00,49.4,41.8,30.17,NNW,346,5.0,9.0,75,0.00,,,0.01,,Wunderground v.1.15,2013-01-14 18:14:00,
2013-01-14 13:19:00,49.0,41.4,30.18,NNW,336,7.0,9.0,75,0.00,,,0.01,,Wunderground v.1.15,2013-01-14 18:19:00,
2013-01-14 13:25:00,48.8,41.2,30.18,NNW,329,7.0,9.0,75,0.00,,,0.01,,Wunderground v.1.15,2013-01-14 18:25:00,
2013-01-14 13:30:00,48.8,41.6,30.18,NNW,334,7.0,7.0,76,0.00,,,0.01,,Wunderground v.1.15,2013-01-14 18:30:00,
2013-01-14 13:35:00,48.6,41.0,30.19,NNW,339,7.0,9.0,75,0.00,,,0.01,,Wunderground v.1.15,2013-01-14 18:35:00,
2013-01-14 13:41:00,48.5,40.9,30.18,NNW,335,7.0,11.0,75,0.00,,,0.01,,Wunderground v.1.15,2013-01-14 18:41:00,
2013-01-14 13:46:00,48.4,40.8,30.18,North,351,8.0,11.0,75,0.00,,,0.01,,Wunderground v.1.15,2013-01-14 18:46:00,
2013-01-14 13:52:00,48.4,41.2,30.18,NNW,329,8.0,8.0,76,0.00,,,0.01,,Wunderground v.1.15,2013-01-14 18:52:00,
2013-01-14 13:57:00,48.3,40.7,30.18,NNW,334,6.0,8.0,75,0.00,,,0.01,,Wunderground v.1.15,2013-01-14 18:57:00,
2013-01-14 14:02:00,48.2,41.0,30.18,NNW,337,5.0,7.0,76,0.00,,,0.01,,Wunderground v.1.15,2013-01-14 19:02:00,
2013-01-14 14:07:00,47.9,40.4,30.17,North,350,6.0,9.0,75,0.00,,,0.01,,Wunderground v.1.15,2013-01-14 19:07:00,
2013-01-14 14:13:00,47.8,40.3,30.19,NNW,329,6.0,7.0,75,0.00,,,0.01,,Wunderground v.1.15,2013-01-14 19:13:00,
2013-01-14 14:18:00,47.5,40.0,30.19,NNW,342,6.0,11.0,75,0.00,,,0.01,,Wunderground v.1.15,2013-01-14 19:18:00,
2013-01-14 14:24:00,47.3,39.8,30.18,NNW,345,7.0,13.0,75,0.00,,,0.01,,Wunderground v.1.15,2013-01-14 19:24:00,
2013-01-14 14:29:00,47.2,39.7,30.19,NW,319,8.0,13.0,75,0.00,,,0.01,,Wunderground v.1.15,2013-01-14 19:29:00,
2013-01-14 14:34:00,47.2,39.7,30.19,NNW,331,8.0,9.0,75,0.00,,,0.01,,Wunderground v.1.15,2013-01-14 19:34:00,
2013-01-14 14:40:00,47.2,39.7,30.20,NNW,335,7.0,8.0,75,0.00,,,0.01,,Wunderground v.1.15,2013-01-14 19:40:00,
2013-01-14 14:45:00,47.1,39.2,30.19,NNW,338,7.0,9.0,74,0.00,,,0.01,,Wunderground v.1.15,2013-01-14 19:45:00,
2013-01-14 14:51:00,47.0,39.1,30.20,NW,322,7.0,11.0,74,0.00,,,0.01,,Wunderground v.1.15,2013-01-14 19:51:00,
2013-01-14 14:56:00,46.8,38.6,30.20,North,355,8.0,11.0,73,0.00,,,0.01,,Wunderground v.1.15,2013-01-14 19:56:00,
2013-01-14 15:01:00,46.8,38.6,30.20,NNW,329,8.0,9.0,73,0.00,,,0.01,,Wunderground v.1.15,2013-01-14 20:01:00,
2013-01-14 15:07:00,46.7,38.1,30.20,NW,315,8.0,9.0,72,0.00,,,0.01,,Wunderground v.1.15,2013-01-14 20:07:00,
2013-01-14 15:12:00,46.7,38.1,30.20,NNW,331,7.0,9.0,72,0.00,,,0.01,,Wunderground v.1.15,2013-01-14 20:12:00,
2013-01-14 15:17:00,46.7,38.5,30.21,NNW,336,7.0,10.0,73,0.00,,,0.01,,Wunderground v.1.15,2013-01-14 20:17:00,
2013-01-14 15:23:00,46.7,38.5,30.20,NNW,335,6.0,7.0,73,0.00,,,0.01,,Wunderground v.1.15,2013-01-14 20:23:00,
2013-01-14 15:28:00,46.7,38.5,30.20,NNW,340,5.0,8.0,73,0.00,,,0.01,,Wunderground v.1.15,2013-01-14 20:28:00,
2013-01-14 15:33:00,46.7,38.1,30.20,North,5,5.0,6.0,72,0.00,,,0.01,,Wunderground v.1.15,2013-01-14 20:33:00,
2013-01-14 15:39:00,46.8,38.2,30.20,North,355,5.0,6.0,72,0.00,,,0.01,,Wunderground v.1.15,2013-01-14 20:39:00,
2013-01-14 15:44:00,46.8,37.9,30.19,North,360,4.0,6.0,71,0.00,,,0.01,,Wunderground v.1.15,2013-01-14 20:44:00,
2013-01-14 15:50:00,46.7,37.4,30.20,North,9,5.0,6.0,70,0.00,,,0.01,,Wunderground v.1.15,2013-01-14 20:50:00,
2013-01-14 15:55:00,46.5,37.2,30.18,NNW,333,5.0,7.0,70,0.00,,,0.01,,Wunderground v.1.15,2013-01-14 20:55:00,
2013-01-14 16:00:00,46.5,37.6,30.21,NNW,340,5.0,5.0,71,0.00,,,0.01,,Wunderground v.1.15,2013-01-14 21:00:00,
2013-01-14 16:06:00,46.4,37.5,30.21,NNW,342,4.0,6.0,71,0.00,,,0.01,,Wunderground v.1.15,2013-01-14 21:06:00,
2013-01-14 16:11:00,46.4,37.1,30.20,NNW,342,4.0,7.0,70,0.00,,,0.01,,Wunderground v.1.15,2013-01-14 21:11:00,
2013-01-14 16:16:00,46.4,37.1,30.20,North,5,4.0,7.0,70,0.00,,,0.01,,Wunderground v.1.15,2013-01-14 21:16:00,
2013-01-14 16:22:00,46.4,36.8,30.20,North,360,3.0,5.0,69,0.00,,,0.01,,Wunderground v.1.15,2013-01-14 21:22:00,
2013-01-14 16:27:00,46.3,36.7,30.21,NNW,347,4.0,5.0,69,0.00,,,0.01,,Wunderground v.1.15,2013-01-14 21:27:00,
2013-01-14 16:32:00,46.2,37.0,30.21,NNW,346,4.0,4.0,70,0.00,,,0.01,,Wunderground v.1.15,2013-01-14 21:32:00,
2013-01-14 16:38:00,46.1,36.9,30.20,North,350,3.0,5.0,70,0.00,,,0.01,,Wunderground v.1.15,2013-01-14 21:38:00,
2013-01-14 16:43:00,46.1,36.9,30.21,North,350,2.0,3.0,70,0.00,,,0.01,,Wunderground v.1.15,2013-01-14 21:43:00,
2013-01-14 16:48:00,46.1,36.9,30.21,North,351,2.0,3.0,70,0.00,,,0.01,,Wunderground v.1.15,2013-01-14 21:48:00,
2013-01-14 16:54:00,46.0,36.8,30.22,NNW,348,3.0,7.0,70,0.00,,,0.01,,Wunderground v.1.15,2013-01-14 21:54:00,
2013-01-14 16:59:00,46.0,36.4,30.23,North,351,4.0,7.0,69,0.00,,,0.01,,Wunderground v.1.15,2013-01-14 21:59:00,
2013-01-14 17:05:00,45.9,36.3,30.22,North,355,4.0,5.0,69,0.00,,,0.01,,Wunderground v.1.15,2013-01-14 22:05:00,
2013-01-14 17:10:00,45.9,36.3,30.22,North,349,3.0,3.0,69,0.00,,,0.01,,Wunderground v.1.15,2013-01-14 22:10:00,
2013-01-14 17:15:00,45.8,36.2,30.23,North,355,3.0,3.0,69,0.00,,,0.01,,Wunderground v.1.15,2013-01-14 22:15:00,
2013-01-14 17:20:00,45.8,36.2,30.23,North,355,3.0,4.0,69,0.00,,,0.01,,Wunderground v.1.15,2013-01-14 22:20:00,
2013-01-14 17:26:00,45.8,36.2,30.23,North,355,2.0,4.0,69,0.00,,,0.01,,Wunderground v.1.15,2013-01-14 22:26:00,
2013-01-14 17:31:00,45.7,36.5,30.23,North,355,1.0,2.0,70,0.00,,,0.01,,Wunderground v.1.15,2013-01-14 22:31:00,
2013-01-14 17:36:00,45.6,36.0,30.23,North,355,1.0,4.0,69,0.00,,,0.01,,Wunderground v.1.15,2013-01-14 22:36:00,
2013-01-14 17:42:00,45.6,36.0,30.23,North,355,3.0,4.0,69,0.00,,,0.01,,Wunderground v.1.15,2013-01-14 22:42:00,
2013-01-14 17:47:00,45.6,36.4,30.25,North,351,3.0,5.0,70,0.00,,,0.01,,Wunderground v.1.15,2013-01-14 22:47:00,
2013-01-14 17:52:00,45.6,36.4,30.25,North,350,3.0,4.0,70,0.00,,,0.01,,Wunderground v.1.15,2013-01-14 22:52:00,
2013-01-14 17:58:00,45.5,36.6,30.26,North,351,2.0,4.0,71,0.00,,,0.01,,Wunderground v.1.15,2013-01-14 22:58:00,
2013-01-14 18:03:00,45.5,36.6,30.26,North,351,2.0,6.0,71,0.00,,,0.01,,Wunderground v.1.15,2013-01-14 23:03:00,
2013-01-14 18:09:00,45.4,36.5,30.26,North,351,2.0,6.0,71,0.00,,,0.01,,Wunderground v.1.15,2013-01-14 23:09:00,
2013-01-14 18:15:00,45.4,36.5,30.27,NNW,346,3.0,6.0,71,0.00,,,0.01,,Wunderground v.1.15,2013-01-14 23:15:00,
2013-01-14 18:20:00,45.3,36.8,30.28,NNW,344,4.0,7.0,72,0.00,,,0.01,,Wunderground v.1.15,2013-01-14 23:20:00,
2013-01-14 18:26:00,45.1,37.3,30.29,NNW,345,4.0,8.0,74,0.00,,,0.01,,Wunderground v.1.15,2013-01-14 23:26:00,
2013-01-14 18:31:00,44.7,37.9,30.30,NNW,345,4.0,4.0,77,0.00,,,0.01,,Wunderground v.1.15,2013-01-14 23:31:00,
2013-01-14 18:37:00,44.0,37.9,30.30,NNW,345,2.0,4.0,79,0.00,,,0.02,,Wunderground v.1.15,2013-01-14 23:37:00,
2013-01-14 18:42:00,43.6,37.8,30.30,NNW,345,1.0,2.0,80,0.00,,,0.02,,Wunderground v.1.15,2013-01-14 23:42:00,
2013-01-14 18:48:00,43.1,37.3,30.29,North,360,3.0,8.0,80,0.00,,,0.02,,Wunderground v.1.15,2013-01-14 23:48:00,
2013-01-14 18:53:00,42.9,37.5,30.30,North,355,3.0,4.0,81,0.00,,,0.03,,Wunderground v.1.15,2013-01-14 23:53:00,
2013-01-14 18:59:00,42.7,37.9,30.29,North,360,2.0,4.0,83,0.00,,,0.03,,Wunderground v.1.15,2013-01-14 23:59:00,
2013-01-14 19:04:00,42.4,37.6,30.28,North,9,2.0,5.0,83,0.00,,,0.03,,Wunderground v.1.15,2013-01-15 00:04:00,
2013-01-14 19:10:00,42.1,37.6,30.28,North,9,3.0,3.0,84,0.00,,,0.03,,Wunderground v.1.15,2013-01-15 00:10:00,
2013-01-14 19:15:00,41.9,37.7,30.30,North,9,2.0,4.0,85,0.00,,,0.03,,Wunderground v.1.15,2013-01-15 00:15:00,
2013-01-14 19:21:00,41.8,37.6,30.30,North,9,1.0,1.0,85,0.00,,,0.04,,Wunderground v.1.15,2013-01-15 00:21:00,
2013-01-14 19:26:00,41.6,37.7,30.30,North,9,1.0,2.0,86,0.00,,,0.04,,Wunderground v.1.15,2013-01-15 00:26:00,
2013-01-14 19:32:00,41.4,37.5,30.31,North,9,0.0,1.0,86,0.05,,,0.05,,Wunderground v.1.15,2013-01-15 00:32:00,
2013-01-14 19:37:00,41.1,37.5,30.31,North,9,0.0,1.0,87,0.05,,,0.05,,Wunderground v.1.15,2013-01-15 00:37:00,
2013-01-14 19:43:00,40.9,37.3,30.32,North,9,0.0,2.0,87,0.07,,,0.06,,Wunderground v.1.15,2013-01-15 00:43:00,
2013-01-14 19:48:00,40.8,37.5,30.32,North,9,0.0,2.0,88,0.07,,,0.07,,Wunderground v.1.15,2013-01-15 00:48:00,
2013-01-14 19:54:00,40.6,37.3,30.32,North,9,0.0,0.0,88,0.07,,,0.07,,Wunderground v.1.15,2013-01-15 00:54:00,
2013-01-14 19:59:00,40.5,37.2,30.32,North,9,0.0,3.0,88,0.06,,,0.08,,Wunderground v.1.15,2013-01-15 00:59:00,
2013-01-14 20:05:00,40.3,37.3,30.32,North,9,0.0,0.0,89,0.06,,,0.08,,Wunderground v.1.15,2013-01-15 01:05:00,
2013-01-14 20:10:00,40.2,37.2,30.32,North,9,0.0,0.0,89,0.05,,,0.08,,Wunderground v.1.15,2013-01-15 01:10:00,
2013-01-14 20:16:00,40.1,37.1,30.32,North,9,0.0,2.0,89,0.05,,,0.09,,Wunderground v.1.15,2013-01-15 01:16:00,
2013-01-14 20:21:00,40.0,37.3,30.32,North,9,0.0,0.0,90,0.05,,,0.09,,Wunderground v.1.15,2013-01-15 01:21:00,
2013-01-14 20:27:00,39.9,37.2,30.32,North,9,0.0,0.0,90,0.04,,,0.09,,Wunderground v.1.15,2013-01-15 01:27:00,
2013-01-14 20:32:00,39.8,37.1,30.32,North,9,0.0,2.0,90,0.04,,,0.10,,Wunderground v.1.15,2013-01-15 01:32:00,
2013-01-14 20:38:00,39.6,36.9,30.32,North,9,1.0,3.0,90,0.04,,,0.10,,Wunderground v.1.15,2013-01-15 01:38:00,
2013-01-14 20:43:00,39.6,37.2,30.32,North,9,1.0,1.0,91,0.04,,,0.10,,Wunderground v.1.15,2013-01-15 01:43:00,
2013-01-14 20:49:00,39.6,37.2,30.32,North,9,1.0,3.0,91,0.00,,,0.11,,Wunderground v.1.15,2013-01-15 01:49:00,
2013-01-14 20:54:00,39.5,37.1,30.33,North,9,2.0,4.0,91,0.00,,,0.11,,Wunderground v.1.15,2013-01-15 01:54:00,
2013-01-14 21:00:00,39.3,36.9,30.33,North,360,3.0,3.0,91,0.00,,,0.11,,Wunderground v.1.15,2013-01-15 02:00:00,
2013-01-14 21:05:00,39.1,36.4,30.32,North,360,4.0,5.0,90,0.00,,,0.11,,Wunderground v.1.15,2013-01-15 02:05:00,
2013-01-14 21:11:00,39.0,36.3,30.33,North,360,4.0,4.0,90,0.00,,,0.11,,Wunderground v.1.15,2013-01-15 02:11:00,
2013-01-14 21:16:00,38.9,36.2,30.32,North,360,3.0,4.0,90,0.00,,,0.11,,Wunderground v.1.15,2013-01-15 02:16:00,
2013-01-14 21:21:00,38.8,36.1,30.33,North,360,3.0,3.0,90,0.00,,,0.12,,Wunderground v.1.15,2013-01-15 02:21:00,
2013-01-14 21:27:00,38.8,36.1,30.33,North,360,3.0,4.0,90,0.00,,,0.12,,Wunderground v.1.15,2013-01-15 02:27:00,
2013-01-14 21:32:00,38.7,36.0,30.32,North,360,2.0,3.0,90,0.00,,,0.12,,Wunderground v.1.15,2013-01-15 02:32:00,
2013-01-14 21:38:00,38.6,36.2,30.33,North,360,1.0,3.0,91,0.00,,,0.13,,Wunderground v.1.15,2013-01-15 02:38:00,
2013-01-14 21:43:00,38.5,36.1,30.33,North,360,2.0,4.0,91,0.10,,,0.14,,Wunderground v.1.15,2013-01-15 02:43:00,